Flag for Bangladesh Weather past 2 weeks in Jessore, Bangladesh

Now
59 °F

Fog.


Feels Like: 58 °F
Forecast: 77 / 87 °F
Wind: 6 mph from Northeast

Location: Kunming Airport

Current Time: Sep 2, 2015 at 4:50:48 AM

Latest Report: Sep 2, 2015 at 4:00 AM


Visibility: 2 mi

Pressure: 30.15 "Hg

Humidity: 94%

Dew point: 57 °F

Location of JessoreLocation

Historic Weather in Jessore — Graph

°F

Jessore temperature yesterday

Maximum temperature yesterday: 61 °F (at 1:00 PM)
Minimum temperature yesterday: 55 °F (at 2:00 AM)
Average temperature yesterday: 58 °F

Past Weeks' High & Low Weather Summary

 TemperatureHumidityPressure
High75 °F (Aug 21, 2:00 PM)100% (Aug 19, 9:00 PM)30.30 "Hg (Aug 19, 9:00 PM)
Low54 °F (Aug 22, 5:00 AM)34% (Aug 21, 2:00 PM)29.98 "Hg (Aug 24, 5:00 PM)
Average63 °F85%30.12 "Hg
* Reported Aug 18 3:00 AM — Sep 2 3:00 AM, Jessore, Weather by CustomWeather, © 2015

Note: Actual official high and low records may vary slightly from our data, if they occured in-between our weather recording intervals... More about our weather records

Advertising

Jessore weather history for previous 24 hours

 ConditionsComfort  
Time TempWeatherWind HumidityBarometerVisibility
3:00 AM
Wed, Sep 2
59 °FFog.3 mph94%30.15 "Hg1 mi
2:00 AM59 °FFog.3 mph94%30.15 "Hg1 mi
1:00 AM59 °FFog.6 mph94%30.18 "Hg2 mi
12:00 AM59 °FFog.3 mph94%30.18 "Hg2 mi
11:00 PM
Tue, Sep 1
59 °FSprinkles. Fog.3 mph94%30.21 "Hg2 mi
10:00 PM59 °FFog.6 mph100%30.21 "Hg2 mi
9:00 PM59 °FFog.3 mph100%30.18 "Hg3 mi
8:00 PM59 °FFog.6 mph94%30.18 "Hg3 mi
7:00 PM59 °FFog.1 mph94%30.15 "Hg3 mi
6:00 PM59 °FSprinkles. Fog.1 mph94%30.12 "Hg3 mi
5:00 PM59 °FSprinkles. Fog.3 mph94%30.12 "Hg2 mi
4:00 PM59 °FSprinkles. Fog.3 mph94%30.12 "Hg3 mi
3:00 PM61 °FFog.6 mph88%30.12 "Hg3 mi
2:00 PM61 °FLight rain. More clouds than sun.6 mph88%30.12 "Hg3 mi
1:00 PM61 °FLight rain. More clouds than sun.6 mph88%30.15 "Hg4 mi
12:00 PM59 °FLight rain. Fog.6 mph94%30.15 "Hg2 mi
11:00 AM59 °FLight rain. Fog.6 mph94%30.18 "Hg2 mi
10:00 AM57 °FLight rain. Fog.8 mph100%30.18 "Hg1 mi
9:00 AM57 °FLight rain. Fog.8 mph94%30.18 "Hg1 mi
8:00 AM57 °FLight rain. Fog.8 mph94%30.18 "Hg1 mi
7:00 AM57 °FLight rain. Fog.10 mph94%30.15 "Hg2 mi
6:00 AM57 °FLight rain. Fog.8 mph100%30.15 "Hg1 mi
5:00 AM55 °FLight rain. Fog.6 mph100%30.12 "Hg1 mi
4:00 AM55 °FLight rain. Fog.3 mph100%30.12 "Hg3 mi
Weather by CustomWeather, © 2015

See weather overviewHow to use our weather pages